CZ-6A DEB, 60891

Orbit data source: Space-Track

CZ-6A DEB, 60891 is space debris in LEO originally from a launch on Tue, 06 Aug 2024 UTC launched from the Taiyaun Space Center, China (TSC). Debris objects in space refer to the collection of defunct objects orbiting the Earth. Examples of debris include non-operational satellites, rocket bodies, and fragments generated from explosions, collisions, or faulty payload assembly.

Loading next visibility...
Identifier
60891, 2024-140KW
Orbit
LEO
Country
Flag of CNCN / PRC
Related business
Manufacturer
SAST
Mission
Spacecraft
Bus & Motor
Unknown
Mass
Unknown
Launch date (UTC)
2024-08-06 (2 years ago)
Launch vehicle
Unknown
Launch site
Taiyaun Space Center, China (TSC)
Object type
Payload
Rocket body
Debris
Shape & HBR
Unknown shape, 0.1 m
Radar Cross Section
Medium (>0.1 m² and <1 m²)

Expand to show TLE details & history
Last TLE update: 11 hours ago

TLE from 11 hours ago
0 CZ-6A DEB
1 60891U 24140KW  26171.37760786  .00000971  00000-0  51401-3 0  9997
2 60891  89.3330 301.4654 0085355 204.5747 155.1360 14.11199792 94514
Epoch: 2026-06-20T09:03Z
TLE epoch observation values (Epoch: 2026-06-20T09:03:45.319Z)
Latitude
-0.00007°
Longitude
-103.06653°
Altitude
914.432 km
Speed
7.366 km/s
True Right ascension
20h 05m 51s
True Declination
0° 00' 00"
Sunlit
Object was in full shadow at epoch
Visualization orbit readout
Latitude
Unknown
Longitude
Unknown
Altitude
Unknown
Speed
Unknown
Apparent Right ascension
Unknown
Apparent Declination
Unknown
Sunlit
N/A
Visualization observer readout
Local Sidereal Time
07:22:57
Azimuth
Unknown
Elevation
Unknown
Doppler factor
Unknown
Orbital elements
Apogee altitude
913.946 km
Perigee altitude
790.516 km
Semi-major axis
7,230.368 km
Eccentricity
0.00854
Inclination
89.333°
RAAN
301.4654°
Arg. of periapsis
204.5747°
True anomaly
155.54331°
Mean anomaly
155.136°
Eccentric anomaly
155.34005°
Mean motion
3.53023 °/min
Orbital period
101.98 mins
BSTAR
0.00051401
Loading maneuver chart data...
Computing Atmospheric mass density...
Loading historical data...
Loading historical data...
Loading historical data...
Loading historical data...
Loading historical data...
Loading historical data...
Loading historical data...

Documentation

Showing up to 5 results
|